TimeEDT,TemperatureF,Dew PointF,Humidity,Sea Level PressureIn,VisibilityMPH,Wind Direction,Wind SpeedMPH,Gust SpeedMPH,PrecipitationIn,Events,Conditions,WindDirDegrees,DateUTC
12:54 AM,59.0,55.9,90,29.82,10.0,NNE,5.8,-,N/A,,Overcast,20,2012-09-22 04:54:00
1:54 AM,59.0,55.9,90,29.78,10.0,SE,5.8,-,0.00,Rain,Light Rain,130,2012-09-22 05:54:00
2:54 AM,61.0,54.0,78,29.70,10.0,ESE,6.9,-,0.00,,Overcast,110,2012-09-22 06:54:00
3:54 AM,62.1,55.9,80,29.65,10.0,SE,9.2,-,0.00,Rain,Light Rain,140,2012-09-22 07:54:00
4:54 AM,64.0,57.9,80,29.62,10.0,SW,5.8,-,0.00,,Mostly Cloudy,220,2012-09-22 08:54:00
5:54 AM,63.0,57.0,81,29.61,10.0,West,15.0,26.5,0.00,,Overcast,280,2012-09-22 09:54:00
6:04 AM,62.6,57.2,82,29.64,10.0,WNW,17.3,35.7,0.00,Rain,Light Rain,300,2012-09-22 10:04:00
6:42 AM,57.2,55.4,94,29.67,5.0,West,8.1,-,0.11,Rain,Rain,270,2012-09-22 10:42:00
6:54 AM,57.0,55.0,93,29.68,10.0,WSW,5.8,-,0.12,Rain,Light Rain,250,2012-09-22 10:54:00
7:45 AM,55.4,55.4,100,29.73,10.0,WSW,10.4,-,0.03,Rain,Light Rain,250,2012-09-22 11:45:00
7:54 AM,55.9,55.0,97,29.73,10.0,WSW,9.2,-,0.03,Rain,Light Rain,250,2012-09-22 11:54:00
8:54 AM,57.0,55.0,93,29.74,10.0,SSW,4.6,-,0.01,,Overcast,210,2012-09-22 12:54:00
9:44 AM,57.2,55.4,94,29.74,10.0,SSW,4.6,-,N/A,,Overcast,210,2012-09-22 13:44:00
9:54 AM,57.9,55.0,90,29.75,10.0,SSW,4.6,-,N/A,,Overcast,200,2012-09-22 13:54:00
10:54 AM,59.0,55.0,87,29.76,10.0,NW,4.6,-,N/A,,Mostly Cloudy,320,2012-09-22 14:54:00
11:54 AM,59.0,54.0,83,29.76,10.0,WSW,10.4,-,0.00,,Overcast,250,2012-09-22 15:54:00
12:30 PM,60.8,51.8,72,29.77,10.0,WSW,11.5,-,N/A,,Overcast,250,2012-09-22 16:30:00
12:54 PM,59.0,52.0,78,29.78,10.0,West,11.5,-,N/A,,Mostly Cloudy,280,2012-09-22 16:54:00
1:54 PM,60.1,50.0,69,29.78,10.0,West,8.1,-,N/A,,Overcast,270,2012-09-22 17:54:00
2:54 PM,60.1,48.0,64,29.80,10.0,West,10.4,20.7,N/A,,Mostly Cloudy,260,2012-09-22 18:54:00
3:54 PM,61.0,46.9,60,29.80,10.0,WSW,15.0,20.7,N/A,,Mostly Cloudy,250,2012-09-22 19:54:00
4:54 PM,63.0,48.9,60,29.80,10.0,WSW,16.1,26.5,N/A,,Mostly Cloudy,240,2012-09-22 20:54:00
5:54 PM,59.0,48.0,67,29.81,10.0,WSW,9.2,17.3,N/A,,Mostly Cloudy,250,2012-09-22 21:54:00
6:54 PM,57.0,48.0,72,29.84,10.0,SW,6.9,-,N/A,,Mostly Cloudy,220,2012-09-22 22:54:00
7:54 PM,55.9,48.9,77,29.84,10.0,WSW,5.8,-,0.00,Rain,Light Rain,240,2012-09-22 23:54:00
8:54 PM,55.9,48.9,77,29.86,10.0,West,6.9,-,0.00,,Mostly Cloudy,270,2012-09-23 00:54:00
9:54 PM,55.9,46.9,72,29.88,10.0,West,9.2,-,0.00,Rain,Light Rain,270,2012-09-23 01:54:00
10:54 PM,52.0,43.0,71,29.92,10.0,WSW,9.2,-,0.00,Rain,Light Rain,240,2012-09-23 02:54:00
11:54 PM,50.0,44.1,80,29.93,10.0,SW,8.1,-,0.00,,Overcast,220,2012-09-23 03:54:00